Location: Huntsville
(41.2590°N, 111.7678°W)
Time: 07:13:59
(UTC+00:00)

Envisat - Pass Details

Date: 06 December 2021
Orbit: 764 x 766 km, 98.2° (Epoch: 18 January)

Event Time Altitude Azimuth Distance (km) Brightness Sun altitude
Rises 00:30:51 0° 197° (SSW) 3,218 6.9 -6.3°
Reaches altitude 10° 00:33:30 10° 210° (SSW) 2,297 6.4 -6.8°
Maximum altitude 00:37:40 26° 266° (W) 1,488 5.5 -7.5°
Drops below altitude 10° 00:41:53 10° 322° (NW) 2,310 5.7 -8.2°
Sets 00:44:35 0° 335° (NNW) 3,242 6.3 -8.7°
